KC2GYU Weather Reports


time (UTC)temp
C
wind
direction
speed
KPH
gust
KPH
rain 1hr
cm
rain 24hr
cm
rain mn
cm
humidity
%
barometer
mb
20260506221911 19 264 0.0 0.0 0.00 0.00 0.00 88 1009.2
20260506221408 19 259 0.0 0.0 0.00 0.00 0.00 88 1009.2
20260506220906 19 249 0.0 0.0 0.00 0.00 0.00 88 1009.0
20260506220401 19 262 0.0 0.0 0.00 0.00 0.00 88 1009.0
20260506215858 19 272 0.0 0.0 0.00 0.00 0.00 88 1009.1
20260506215354 19 246 0.0 0.0 0.00 0.00 0.00 88 1009.1
20260506214850 19 253 0.0 0.0 0.00 0.00 0.00 88 1009.3
20260506214347 19 273 0.0 0.0 0.00 0.00 0.00 87 1009.2
20260506213845 19 273 0.0 0.0 0.00 0.00 0.00 87 1009.1
20260506213342 19 261 0.0 0.0 0.00 0.00 0.00 87 1008.9
20260506212839 19 266 0.0 0.0 0.00 0.00 0.00 88 1009.1
20260506212335 19 248 0.0 0.0 0.00 0.00 0.00 87 1008.6
20260506211830 19 230 0.0 0.0 0.00 0.00 0.00 87 1008.8
20260506211326 19 264 0.0 0.0 0.00 0.00 0.00 87 1008.5
20260506210824 20 284 0.0 0.0 0.00 0.00 0.00 86 1008.5
20260506210320 20 214 0.0 1.6 0.00 0.00 0.00 85 1008.7
20260506205818 20 236 1.6 3.2 0.00 0.00 0.00 85 1008.4
20260506205314 20 283 0.0 1.6 0.00 0.00 0.00 85 1008.7
20260506204810 20 278 0.0 0.0 0.00 0.00 0.00 86 1008.6
20260506204308 20 256 0.0 1.6 0.00 0.00 0.00 85 1008.4
20260506203806 19 213 0.0 0.0 0.00 0.00 0.00 86 1008.4
20260506203303 19 262 0.0 0.0 0.00 0.00 0.00 86 1008.5
20260506202759 20 256 0.0 0.0 0.00 0.00 0.00 86 1008.3
20260506202256 20 263 8.0 9.7 0.00 0.00 0.00 86 1008.6
20260506201753 19 172 1.6 3.2 0.00 0.00 0.00 87 1008.6
20260506201249 19 261 0.0 0.0 0.00 0.00 0.00 88 1008.7
20260506200747 19 258 0.0 0.0 0.00 0.00 0.00 89 1008.8
20260506200243 19 274 4.8 8.0 0.00 0.00 0.00 88 1008.7
20260506195739 19 265 3.2 8.0 0.00 0.00 0.00 87 1008.8
20260506195236 19 226 0.0 0.0 0.00 0.00 0.00 87 1008.9
20260506194733 19 249 0.0 0.0 0.00 0.00 0.00 87 1008.9
20260506194230 19 251 0.0 0.0 0.00 0.00 0.00 87 1009.0
20260506193728 19 267 0.0 0.0 0.00 0.00 0.00 87 1009.1
20260506193224 19 262 1.6 4.8 0.00 0.00 0.00 87 1009.4
20260506192721 19 287 0.0 0.0 0.00 0.00 0.00 87 1009.6
20260506192218 19 216 0.0 1.6 0.00 0.00 0.00 87 1009.3
20260506191709 19 240 0.0 0.0 0.00 0.00 0.00 87 1009.3
20260506191205 19 286 4.8 8.0 0.00 0.00 0.00 86 1009.5
20260506190703 20 282 0.0 0.0 0.00 0.00 0.00 86 1009.6
20260506190159 20 220 0.0 0.0 0.00 0.00 0.00 86 1009.5
20260506185656 20 264 0.0 1.6 0.00 0.00 0.00 86 1009.4
20260506185152 20 130 3.2 9.7 0.00 0.00 0.00 86 1009.8
20260506184645 20 123 6.4 9.7 0.00 0.00 0.00 87 1009.7
20260506184141 19 268 3.2 4.8 0.00 0.00 0.00 88 1009.8
20260506183638 18 250 0.0 0.0 0.00 0.00 0.00 89 1009.8
20260506183134 18 287 0.0 1.6 0.00 0.00 0.00 90 1009.9
20260506182632 18 251 0.0 1.6 0.00 0.00 0.00 90 1010.0
20260506182128 17 255 0.0 0.0 0.00 0.00 0.00 93 1010.2
20260506181626 17 275 0.0 0.0 0.00 0.00 0.00 94 1010.1
20260506181123 17 254 0.0 0.0 0.00 0.00 0.00 95 1009.8
20260506180620 17 252 0.0 0.0 0.00 0.00 0.00 95 1010.3
20260506180117 17 266 0.0 0.0 0.00 0.00 0.00 95 1010.0
20260506175613 17 260 0.0 0.0 0.00 0.00 0.00 95 1010.3
20260506175108 17 263 0.0 0.0 0.00 0.00 0.00 94 1010.3
20260506174608 17 269 0.0 0.0 0.00 0.00 0.00 93 1010.7
20260506174103 17 262 0.0 0.0 0.00 0.00 0.00 93 1010.5
20260506173601 17 253 0.0 0.0 0.00 0.00 0.00 92 1010.6
20260506173058 17 197 0.0 1.6 0.00 0.00 0.00 92 1010.4
20260506172556 17 293 0.0 1.6 0.00 0.00 0.00 92 1010.5
20260506172051 17 243 0.0 0.0 0.00 0.00 0.00 93 1010.6
20260506171549 17 264 0.0 0.0 0.00 0.00 0.00 93 1010.7
20260506171046 17 252 0.0 0.0 0.00 0.00 0.00 93 1010.6
20260506170544 17 40 0.0 1.6 0.00 0.00 0.00 93 1010.4
20260506170041 17 275 0.0 0.0 0.00 0.00 0.00 92 1010.6
20260506165539 17 282 0.0 1.6 0.00 0.00 0.00 90 1010.9
20260506165035 17 284 0.0 0.0 0.00 0.00 0.00 90 1011.2
20260506164532 17 270 0.0 0.0 0.00 0.00 0.00 90 1011.2
20260506164030 17 257 0.0 1.6 0.00 0.00 0.00 89 1011.3
20260506163526 17 265 0.0 0.0 0.00 0.00 0.00 90 1011.3
20260506163021 17 224 0.0 0.0 0.00 0.00 0.00 89 1011.5
20260506162518 17 252 0.0 0.0 0.00 0.00 0.00 89 1011.6
20260506162009 17 269 0.0 1.6 0.00 0.00 0.00 89 1011.6
20260506161507 17 245 4.8 8.0 0.00 0.00 0.00 88 1011.6
20260506160958 17 260 0.0 0.0 0.00 0.00 0.00 89 1011.7
20260506160456 18 258 0.0 0.0 0.00 0.00 0.00 87 1011.5
20260506155953 17 265 0.0 0.0 0.00 0.00 0.00 89 1011.7
20260506155451 17 270 0.0 0.0 0.00 0.00 0.00 88 1011.9
20260506153622 18 223 0.0 0.0 0.00 0.00 0.00 87 1012.2
20260506153119 18 234 0.0 0.0 0.00 0.00 0.00 87 1012.0
20260506152616 19 266 0.0 0.0 0.00 0.00 0.00 85 1012.0
20260506152115 18 174 0.0 0.0 0.00 0.00 0.00 85 1012.1
20260506151613 19 190 6.4 12.9 0.00 0.00 0.00 85 1012.2
20260506151109 18 258 0.0 0.0 0.00 0.00 0.00 85 1012.1
20260506150606 18 264 0.0 0.0 0.00 0.00 0.00 85 1012.0
20260506145559 20 136 0.0 3.2 0.00 0.00 0.00 84 1012.3
20260506145057 20 261 8.0 9.7 0.00 0.00 0.00 84 1011.9
20260506144554 19 293 3.2 8.0 0.00 0.00 0.00 84 1012.0
20260506144050 19 216 0.0 0.0 0.00 0.00 0.00 85 1012.4
20260506143548 18 265 0.0 0.0 0.00 0.00 0.00 86 1012.4
20260506143046 18 256 0.0 0.0 0.00 0.00 0.00 86 1012.3
20260506142544 18 245 1.6 3.2 0.00 0.00 0.00 85 1012.2
20260506142042 18 260 8.0 11.3 0.00 0.00 0.00 84 1012.1
20260506141539 18 251 0.0 0.0 0.00 0.00 0.00 86 1012.2
20260506141038 18 268 0.0 0.0 0.00 0.00 0.00 85 1012.3
20260506140535 18 258 0.0 1.6 0.00 0.00 0.00 85 1012.2
20260506140032 19 225 3.2 3.2 0.00 0.00 0.00 84 1012.2
20260506135529 19 263 0.0 1.6 0.00 0.00 0.00 84 1012.2
20260506135025 18 175 1.6 4.8 0.00 0.00 0.00 85 1012.0
20260506134521 18 264 0.0 0.0 0.00 0.00 0.00 87 1012.3
20260506134017 18 279 0.0 1.6 0.00 0.00 0.00 86 1012.1
20260506133515 17 265 0.0 0.0 0.00 0.00 0.00 87 1012.3
20260506133012 17 205 4.8 9.7 0.00 0.00 0.00 88 1012.3
20260506132508 17 266 1.6 4.8 0.00 0.00 0.00 88 1012.3
20260506132006 18 257 3.2 4.8 0.00 0.00 0.00 87 1012.4
20260506131503 18 279 0.0 0.0 0.00 0.00 0.00 87 1012.6
20260506130959 17 258 0.0 0.0 0.00 0.00 0.00 88 1012.6
20260506130456 18 248 0.0 1.6 0.00 0.00 0.00 87 1012.6
20260506125954 18 173 4.8 8.0 0.00 0.00 0.00 87 1012.8
20260506125452 19 260 0.0 0.0 0.00 0.00 0.00 85 1012.6
20260506124949 18 253 0.0 0.0 0.00 0.00 0.00 86 1012.5
20260506124447 18 266 8.0 14.5 0.00 0.00 0.00 86 1012.5
20260506123945 18 260 0.0 0.0 0.00 0.00 0.00 87 1012.5
20260506123443 18 255 0.0 0.0 0.00 0.00 0.00 88 1012.7
20260506122940 17 265 6.4 11.3 0.00 0.00 0.00 88 1012.4
20260506122437 17 253 0.0 0.0 0.00 0.00 0.00 89 1012.5
20260506121935 17 225 0.0 0.0 0.00 0.00 0.00 89 1012.6
20260506121431 17 264 0.0 1.6 0.00 0.00 0.00 90 1012.4
20260506120929 17 282 0.0 1.6 0.00 0.00 0.00 91 1012.5
20260506120426 17 259 0.0 0.0 0.00 0.00 0.00 91 1012.7
20260506115923 17 251 0.0 0.0 0.00 0.00 0.00 91 1012.4
20260506115421 17 262 0.0 0.0 0.00 0.00 0.00 90 1012.6
20260506114919 17 280 4.8 8.0 0.00 0.00 0.00 90 1012.4
20260506114416 17 265 0.0 0.0 0.00 0.00 0.00 91 1012.4
20260506113915 16 258 0.0 0.0 0.00 0.00 0.00 92 1012.6
20260506113412 16 257 0.0 0.0 0.00 0.00 0.00 92 1012.5
20260506112909 16 265 1.6 1.6 0.00 0.00 0.00 93 1012.4
20260506112407 15 261 0.0 0.0 0.00 0.00 0.00 94 1012.3
20260506111903 15 263 0.0 0.0 0.00 0.00 0.00 95 1012.1
20260506111401 15 257 0.0 0.0 0.00 0.00 0.00 96 1012.4
20260506110859 15 262 0.0 0.0 0.00 0.00 0.00 96 1012.6
20260506110356 14 272 0.0 0.0 0.00 0.00 0.00 97 1012.5
20260506105853 14 258 0.0 0.0 0.00 0.00 0.00 97 1012.6
20260506105349 14 262 0.0 0.0 0.00 0.00 0.00 97 1012.6
20260506104846 13 249 0.0 1.6 0.00 0.00 0.00 97 1012.3
20260506104344 13 265 4.8 4.8 0.00 0.00 0.00 97 1012.5
20260506103842 13 275 0.0 0.0 0.00 0.00 0.00 97 1012.4
20260506103339 13 259 0.0 1.6 0.00 0.00 0.00 97 1012.6
20260506102836 13 263 0.0 0.0 0.00 0.00 0.00 97 1012.5
20260506102334 13 269 1.6 3.2 0.00 0.00 0.00 97 1012.6
20260506101831 13 260 0.0 0.0 0.00 0.00 0.00 97 1012.4
20260506101327 13 128 0.0 3.2 0.00 0.00 0.00 97 1012.2
20260506100825 13 218 0.0 0.0 0.00 0.00 0.00 97 1012.3
20260506100323 13 268 0.0 0.0 0.00 0.00 0.00 97 1012.1
20260506095821 13 316 0.0 1.6 0.00 0.00 0.00 97 1012.2
20260506095318 13 286 1.6 4.8 0.00 0.00 0.00 97 1012.2
20260506094815 13 262 0.0 1.6 0.00 0.00 0.00 97 1012.3
20260506094314 13 264 0.0 0.0 0.00 0.00 0.00 97 1012.4
20260506093812 13 260 0.0 0.0 0.00 0.00 0.00 97 1012.4
20260506093308 13 328 0.0 0.0 0.00 0.00 0.00 97 1012.3
20260506092806 13 259 0.0 0.0 0.00 0.00 0.00 97 1012.4
20260506092306 13 263 1.6 3.2 0.00 0.00 0.00 97 1012.2
20260506091800 13 255 0.0 0.0 0.00 0.00 0.00 97 1012.5
20260506091258 13 260 0.0 0.0 0.00 0.00 0.00 97 1012.4
20260506090756 13 250 0.0 0.0 0.00 0.00 0.00 97 1012.4
20260506090253 13 261 0.0 0.0 0.00 0.00 0.00 97 1012.4
20260506085749 13 272 0.0 0.0 0.00 0.00 0.00 97 1012.4
20260506085246 13 240 0.0 0.0 0.00 0.00 0.00 97 1012.6
20260506084742 13 265 0.0 0.0 0.00 0.00 0.00 97 1012.5
20260506084238 13 265 0.0 1.6 0.00 0.00 0.00 97 1012.5
20260506083736 13 262 0.0 0.0 0.00 0.00 0.00 97 1012.7
20260506083233 13 258 0.0 0.0 0.00 0.00 0.00 97 1012.8
20260506082731 13 268 0.0 0.0 0.00 0.00 0.00 97 1012.6
20260506082226 13 267 0.0 0.0 0.00 0.00 0.00 97 1012.7
20260506081724 14 265 0.0 0.0 0.00 0.00 0.00 97 1012.6
20260506081221 14 277 0.0 1.6 0.00 0.00 0.00 97 1012.6
20260506080719 14 280 0.0 0.0 0.00 0.00 0.00 97 1012.6
20260506080215 14 295 1.6 8.0 0.00 0.00 0.00 97 1012.5
20260506073200 14 273 0.0 0.0 0.00 0.00 0.00 97 1012.6
20260506072656 14 283 0.0 0.0 0.00 0.00 0.00 97 1012.6
20260506072154 14 258 0.0 0.0 0.00 0.00 0.00 97 1012.6
20260506071651 14 249 0.0 1.6 0.00 0.00 0.00 97 1012.6
20260506071149 14 123 0.0 3.2 0.00 0.00 0.00 96 1012.8
20260506070645 14 262 0.0 0.0 0.00 0.00 0.00 96 1012.7
20260506070142 14 268 1.6 3.2 0.00 0.00 0.00 96 1012.6
20260506062120 14 329 4.8 4.8 0.00 0.00 0.00 96 1012.8
20260506061616 14 174 0.0 1.6 0.00 0.00 0.00 96 1012.5
20260506061114 14 285 3.2 4.8 0.00 0.00 0.00 95 1012.7
20260506060612 14 233 0.0 0.0 0.00 0.00 0.00 95 1012.6
20260506060108 14 263 1.6 3.2 0.00 0.00 0.00 95 1012.9
20260506051040 15 238 0.0 1.6 0.00 0.00 0.00 94 1013.3
20260506050538 15 270 0.0 0.0 0.00 0.00 0.00 94 1013.2
20260506045029 15 289 0.0 0.0 0.00 0.00 0.00 93 1013.4
20260506044527 15 265 0.0 0.0 0.00 0.00 0.00 93 1013.3
20260506044023 15 251 0.0 1.6 0.00 0.00 0.00 93 1013.1
20260506043520 15 216 0.0 0.0 0.00 0.00 0.00 93 1013.3
20260506043019 15 263 0.0 1.6 0.00 0.00 0.00 93 1013.4
20260506042518 15 264 4.8 8.0 0.00 0.00 0.00 93 1013.2
20260506042015 15 296 0.0 1.6 0.00 0.00 0.00 93 1013.1
20260506041514 15 213 0.0 1.6 0.00 0.00 0.00 93 1013.1
20260506041010 15 247 0.0 0.0 0.00 0.00 0.00 92 1013.1
20260506040508 15 312 0.0 0.0 0.00 0.00 0.00 92 1013.2
20260506040003 15 282 9.7 17.7 0.00 0.00 0.00 92 1013.1
20260506035501 15 281 0.0 0.0 0.00 0.00 0.00 92 1013.2
20260506034957 15 232 0.0 1.6 0.00 0.00 0.00 92 1013.1
20260506034455 15 196 0.0 3.2 0.00 0.00 0.00 92 1013.3
20260506033951 15 258 4.8 4.8 0.00 0.00 0.00 92 1013.2
20260506033449 15 257 1.6 3.2 0.00 0.00 0.00 92 1013.1
20260506032945 15 255 0.0 0.0 0.00 0.00 0.00 92 1013.2
20260506032443 15 268 0.0 0.0 0.00 0.00 0.00 92 1013.3
20260506031939 15 274 0.0 0.0 0.00 0.00 0.00 92 1013.3
20260506031437 15 274 0.0 0.0 0.00 0.00 0.00 92 1013.1
20260506030934 15 252 0.0 0.0 0.00 0.00 0.00 91 1013.5
20260506030432 15 263 6.4 9.7 0.00 0.00 0.00 91 1013.3
20260506025929 15 7 4.8 9.7 0.00 0.00 0.00 91 1013.4
20260506025426 15 266 0.0 1.6 0.00 0.00 0.00 91 1013.4
20260506024922 15 277 0.0 0.0 0.00 0.00 0.00 90 1013.2
20260506024419 15 345 3.2 9.7 0.00 0.00 0.00 90 1013.4
20260506023915 15 235 1.6 3.2 0.00 0.00 0.00 90 1013.3
20260506023413 15 258 0.0 0.0 0.00 0.00 0.00 90 1013.3
20260506022909 16 239 0.0 0.0 0.00 0.00 0.00 89 1013.2
20260506022407 16 240 4.8 9.7 0.00 0.00 0.00 89 1013.3
20260506021904 16 266 0.0 0.0 0.00 0.00 0.00 89 1013.3
20260506021401 16 262 0.0 0.0 0.00 0.00 0.00 89 1013.4
20260506020858 16 190 0.0 1.6 0.00 0.00 0.00 89 1013.2
20260506020356 16 278 3.2 4.8 0.00 0.00 0.00 89 1013.3
20260506015853 16 201 0.0 0.0 0.00 0.00 0.00 89 1013.4
20260506015351 16 245 0.0 0.0 0.00 0.00 0.00 89 1013.3
20260506014847 16 302 1.6 4.8 0.00 0.00 0.00 89 1013.1
20260506014344 16 188 0.0 1.6 0.00 0.00 0.00 89 1013.2
20260506013840 16 269 4.8 4.8 0.00 0.00 0.00 88 1013.3
20260506013338 16 230 0.0 1.6 0.00 0.00 0.00 88 1013.2
20260506012834 16 263 0.0 0.0 0.00 0.00 0.00 88 1013.2
20260506012332 16 286 0.0 0.0 0.00 0.00 0.00 88 1013.0
20260506011829 16 257 4.8 8.0 0.00 0.00 0.00 87 1013.2
20260506011325 16 244 0.0 0.0 0.00 0.00 0.00 87 1012.8
20260506010823 16 196 0.0 1.6 0.00 0.00 0.00 87 1013.2
20260506010321 16 246 0.0 1.6 0.00 0.00 0.00 88 1012.8
20260506005817 16 267 1.6 4.8 0.00 0.00 0.00 88 1012.8
20260506005314 16 260 3.2 3.2 0.00 0.00 0.00 87 1012.8
20260506004810 16 333 4.8 9.7 0.00 0.00 0.00 88 1012.5
20260506004308 16 268 8.0 11.3 0.00 0.00 0.00 88 1012.6
20260506003804 16 241 0.0 0.0 0.00 0.00 0.00 89 1012.5
20260506003300 16 255 1.6 3.2 0.00 0.00 0.00 89 1012.5
20260506002757 16 284 3.2 4.8 0.00 0.00 0.00 89 1012.5
20260506002253 16 268 3.2 4.8 0.00 0.00 0.00 89 1012.8
20260506001749 16 258 0.0 0.0 0.00 0.00 0.00 89 1012.9
20260506001247 16 293 0.0 0.0 0.00 0.00 0.00 88 1012.5
20260506000743 16 235 4.8 8.0 0.00 0.00 0.00 88 1012.6
20260506000241 16 251 0.0 0.0 0.00 0.00 0.00 88 1012.5
20260505235737 16 265 0.0 0.0 0.00 0.00 0.00 87 1012.3
20260505235235 16 247 0.0 0.0 0.00 0.00 0.00 87 1012.6
20260505234732 16 247 0.0 1.6 0.00 0.00 0.00 86 1012.6
20260505234229 16 238 0.0 1.6 0.00 0.00 0.00 86 1012.6
20260505233726 16 246 4.8 9.7 0.00 0.00 0.00 85 1012.2
20260505233224 16 275 1.6 3.2 0.00 0.00 0.00 84 1012.3
20260505232721 17 267 0.0 0.0 0.00 0.00 0.00 84 1012.4
20260505232218 17 275 4.8 8.0 0.00 0.00 0.00 83 1012.4
20260505231715 17 265 0.0 1.6 0.00 0.00 0.00 82 1012.4
20260505231214 17 239 0.0 0.0 0.00 0.00 0.00 82 1012.2
20260505230712 17 291 8.0 12.9 0.00 0.00 0.00 81 1012.3
20260505230208 17 163 3.2 8.0 0.00 0.00 0.00 80 1012.2
20260505225705 18 244 0.0 1.6 0.00 0.00 0.00 80 1012.4
20260505225201 18 233 1.6 1.6 0.00 0.00 0.00 79 1012.1
20260505224656 18 271 3.2 9.7 0.00 0.00 0.00 78 1012.3
20260505224155 18 231 0.0 1.6 0.00 0.00 0.00 77 1012.0
20260505223652 18 240 0.0 1.6 0.00 0.00 0.00 77 1011.9
20260505223148 18 264 1.6 3.2 0.00 0.00 0.00 77 1012.1
20260505222644 18 265 6.4 12.9 0.00 0.00 0.00 77 1012.0